ETH736 LIMC-LSZH

Flight info

Callsign ETH736
Flight time 0h 33m
Altitude 30000
Route PEPAG DCT CANNE Z651 KELIP
Aircraft A359/H-SDE2E3GHIJ3J4J5LM1ORWXY/LB1D1

Departure

Time 2026-05-05 22:52
Airport Milan Malpensa International Airport (LIMC)

Arrival

Time 2026-05-05 23:25
Airport Zürich Airport (LSZH)
Time Latitude Longitude Altitude Speed Heading
2026-05-05 22:28 45.62459 8.71790 754 ft 0 kts 259°
2026-05-05 22:37 45.62461 8.71804 754 ft 4 kts 258°
2026-05-05 22:38 45.62466 8.71838 754 ft 3 kts 258°
2026-05-05 22:38 45.62475 8.71868 759 ft 4 kts 207°
2026-05-05 22:38 45.62499 8.71872 757 ft 4 kts 168°
2026-05-05 22:38 45.62516 8.71868 754 ft 1 kts 169°
2026-05-05 22:39 45.62518 8.71867 754 ft 0 kts 169°
2026-05-05 22:42 45.62514 8.71868 754 ft 1 kts 170°
2026-05-05 22:42 45.62494 8.71872 754 ft 5 kts 172°
2026-05-05 22:42 45.62445 8.71885 756 ft 9 kts 168°
2026-05-05 22:43 45.62379 8.71905 759 ft 1 kts 167°
2026-05-05 22:43 45.62375 8.71907 759 ft 1 kts 162°
2026-05-05 22:43 45.62358 8.71929 755 ft 7 kts 130°
2026-05-05 22:43 45.62351 8.72024 759 ft 13 kts 80°
2026-05-05 22:44 45.62368 8.72154 754 ft 13 kts 80°
2026-05-05 22:44 45.62336 8.72222 755 ft 12 kts 153°
2026-05-05 22:44 45.62229 8.72259 754 ft 20 kts 168°
2026-05-05 22:44 45.62069 8.72300 755 ft 27 kts 167°
2026-05-05 22:45 45.61862 8.72359 755 ft 33 kts 169°
2026-05-05 22:45 45.61616 8.72428 754 ft 39 kts 169°
2026-05-05 22:45 45.61356 8.72499 756 ft 39 kts 169°
2026-05-05 22:45 45.61142 8.72558 754 ft 19 kts 168°
2026-05-05 22:46 45.61077 8.72634 753 ft 15 kts 101°
2026-05-05 22:46 45.61099 8.72829 750 ft 24 kts 79°
2026-05-05 22:46 45.61135 8.73091 755 ft 29 kts 79°
2026-05-05 22:46 45.61149 8.73234 756 ft 9 kts 97°
2026-05-05 22:47 45.61149 8.73315 756 ft 5 kts 41°
2026-05-05 22:47 45.61206 8.73323 755 ft 13 kts 352°
2026-05-05 22:47 45.61320 8.73291 759 ft 21 kts 348°
2026-05-05 22:47 45.61484 8.73245 757 ft 27 kts 349°
2026-05-05 22:48 45.61583 8.73221 757 ft 11 kts
2026-05-05 22:48 45.61624 8.73330 758 ft 17 kts 80°
2026-05-05 22:48 45.61627 8.73427 758 ft 0 kts 107°
2026-05-05 22:50 45.61618 8.73462 753 ft 9 kts 115°
2026-05-05 22:50 45.61587 8.73593 752 ft 19 kts 89°
2026-05-05 22:50 45.61649 8.73735 750 ft 17 kts 354°
2026-05-05 22:51 45.61719 8.73709 748 ft 0 kts 345°
2026-05-05 22:51 45.61745 8.73701 748 ft 27 kts 348°
2026-05-05 22:51 45.62270 8.73556 750 ft 124 kts 349°
2026-05-05 22:51 45.63368 8.73252 1003 ft 184 kts 349°
2026-05-05 22:52 45.64714 8.73054 1808 ft 207 kts
2026-05-05 22:52 45.66085 8.73675 2799 ft 209 kts 33°
2026-05-05 22:52 45.67120 8.75118 3624 ft 209 kts 57°
2026-05-05 22:52 45.67979 8.76810 4472 ft 212 kts 54°
2026-05-05 22:53 45.68944 8.78431 5274 ft 216 kts 48°
2026-05-05 22:53 45.70015 8.79969 6110 ft 220 kts 44°
2026-05-05 22:53 45.71134 8.81433 6954 ft 223 kts 42°
2026-05-05 22:53 45.72188 8.83070 7751 ft 226 kts 59°
2026-05-05 22:54 45.72635 8.85202 8583 ft 227 kts 92°
2026-05-05 22:54 45.72186 8.87402 9188 ft 239 kts 124°
2026-05-05 22:54 45.71213 8.89381 9976 ft 247 kts 129°
2026-05-05 22:54 45.70162 8.91355 10803 ft 252 kts 130°
2026-05-05 22:55 45.69103 8.93371 11658 ft 256 kts 129°
2026-05-05 22:55 45.68030 8.95441 12536 ft 261 kts 130°
2026-05-05 22:55 45.66948 8.97548 13416 ft 265 kts 130°
2026-05-05 22:55 45.65850 8.99697 14220 ft 270 kts 130°
2026-05-05 22:56 45.64889 9.02036 14998 ft 280 kts 115°
2026-05-05 22:56 45.64531 9.04854 15573 ft 302 kts 96°
2026-05-05 22:56 45.64527 9.07963 15935 ft 324 kts 92°
2026-05-05 22:56 45.64582 9.11288 16300 ft 344 kts 92°
2026-05-05 22:57 45.64629 9.14801 16665 ft 363 kts 92°
2026-05-05 22:57 45.64663 9.18389 17009 ft 381 kts 92°
2026-05-05 22:57 45.64692 9.22372 17393 ft 398 kts 92°
2026-05-05 22:57 45.64717 9.26391 17968 ft 408 kts 93°
2026-05-05 22:58 45.64817 9.30489 18609 ft 418 kts 87°
2026-05-05 22:58 45.65498 9.34562 19303 ft 428 kts 70°
2026-05-05 22:58 45.67004 9.38269 20110 ft 437 kts 52°
2026-05-05 22:58 45.69258 9.41214 20794 ft 443 kts 33°
2026-05-05 22:59 45.72056 9.43064 21363 ft 446 kts 13°
2026-05-05 22:59 45.75118 9.43618 22018 ft 445 kts 354°
2026-05-05 22:59 45.78137 9.42823 22699 ft 440 kts 335°
2026-05-05 22:59 45.80806 9.40813 23351 ft 434 kts 317°
2026-05-05 23:00 45.84672 9.34391 24635 ft 426 kts 299°
2026-05-05 23:00 45.86399 9.30938 25318 ft 428 kts 299°
2026-05-05 23:00 45.88144 9.27463 25984 ft 430 kts 298°
2026-05-05 23:01 45.89900 9.23976 26623 ft 433 kts 298°
2026-05-05 23:01 45.91674 9.20462 27289 ft 436 kts 298°
2026-05-05 23:01 45.93462 9.16928 27921 ft 438 kts 298°
2026-05-05 23:01 45.95254 9.13380 28535 ft 441 kts 298°
2026-05-05 23:02 45.97093 9.09820 29124 ft 448 kts 300°
2026-05-05 23:02 45.99219 9.06534 29599 ft 462 kts 309°
2026-05-05 23:02 46.01711 9.03537 29951 ft 471 kts 313°
2026-05-05 23:02 46.04305 9.00709 29973 ft 481 kts 315°
2026-05-05 23:03 46.09851 8.95043 29971 ft 485 kts 316°
2026-05-05 23:03 46.15638 8.89899 29966 ft 498 kts 327°
2026-05-05 23:04 46.18934 8.88192 29970 ft 510 kts 338°
2026-05-05 23:04 46.22445 8.87237 29963 ft 516 kts 345°
2026-05-05 23:04 46.29587 8.86017 29967 ft 516 kts 348°
2026-05-05 23:05 46.36764 8.85027 29721 ft 524 kts 348°
2026-05-05 23:05 46.40424 8.84520 29492 ft 531 kts 349°
2026-05-05 23:05 46.44099 8.83988 29208 ft 530 kts 349°
2026-05-05 23:06 46.47763 8.83444 28920 ft 528 kts 349°
2026-05-05 23:06 46.51409 8.82899 28647 ft 526 kts 349°
2026-05-05 23:06 46.55040 8.82352 28368 ft 524 kts 349°
2026-05-05 23:06 46.58656 8.81804 28091 ft 521 kts 349°
2026-05-05 23:07 46.62255 8.81258 27809 ft 520 kts 349°
2026-05-05 23:07 46.65845 8.80712 27551 ft 517 kts 349°
2026-05-05 23:07 46.69406 8.80171 27225 ft 512 kts 349°
2026-05-05 23:07 46.72933 8.79638 26610 ft 506 kts 349°
2026-05-05 23:08 46.76419 8.79107 25938 ft 501 kts 349°
2026-05-05 23:08 46.79869 8.78582 25276 ft 497 kts 350°
2026-05-05 23:08 46.83299 8.78061 24604 ft 493 kts 350°
2026-05-05 23:08 46.86694 8.77547 23964 ft 489 kts 350°
2026-05-05 23:09 46.90070 8.77028 23254 ft 486 kts 350°
2026-05-05 23:09 46.93414 8.76514 22553 ft 480 kts 350°
2026-05-05 23:09 46.96718 8.76008 21903 ft 475 kts 350°
2026-05-05 23:09 46.99981 8.75497 21238 ft 469 kts 350°
2026-05-05 23:10 47.03197 8.74984 20590 ft 463 kts 350°
2026-05-05 23:10 47.06391 8.74474 19975 ft 457 kts 351°
2026-05-05 23:10 47.09470 8.73682 19430 ft 445 kts 342°
2026-05-05 23:10 47.12309 8.72133 18239 ft 428 kts 329°
2026-05-05 23:11 47.14318 8.70187 16842 ft 421 kts 316°
2026-05-05 23:11 47.14680 8.69710 16566 ft 419 kts 313°
2026-05-05 23:11 47.16597 8.66553 15213 ft 409 kts 306°
2026-05-05 23:11 47.18330 8.63387 14579 ft 385 kts 306°
2026-05-05 23:12 47.19971 8.60382 14026 ft 373 kts 306°
2026-05-05 23:12 47.21589 8.57416 13411 ft 371 kts 306°
2026-05-05 23:12 47.23201 8.54464 12790 ft 371 kts 306°
2026-05-05 23:12 47.24816 8.51504 12196 ft 370 kts 306°
2026-05-05 23:13 47.26402 8.48599 11611 ft 365 kts 306°
2026-05-05 23:13 47.27982 8.45706 11170 ft 357 kts 306°
2026-05-05 23:13 47.29500 8.42933 11011 ft 340 kts 305°
2026-05-05 23:13 47.30945 8.40287 10893 ft 324 kts 305°
2026-05-05 23:14 47.32324 8.37759 10744 ft 309 kts 305°
2026-05-05 23:14 47.33642 8.35337 10625 ft 296 kts 304°
2026-05-05 23:14 47.34902 8.33021 10490 ft 283 kts 304°
2026-05-05 23:14 47.36105 8.30809 10374 ft 271 kts 303°
2026-05-05 23:15 47.37274 8.28656 10244 ft 267 kts 302°
2026-05-05 23:15 47.38429 8.26518 10027 ft 266 kts 302°
2026-05-05 23:15 47.39566 8.24412 9735 ft 268 kts 302°
2026-05-05 23:15 47.40760 8.22190 9633 ft 282 kts 302°
2026-05-05 23:16 47.41982 8.19931 9412 ft 280 kts 303°
2026-05-05 23:16 47.43201 8.17677 8906 ft 281 kts 303°
2026-05-05 23:16 47.44418 8.15429 8547 ft 278 kts 303°
2026-05-05 23:16 47.45621 8.13205 8245 ft 276 kts 303°
2026-05-05 23:17 47.46816 8.10987 7972 ft 275 kts 303°
2026-05-05 23:17 47.48015 8.08810 7676 ft 274 kts 306°
2026-05-05 23:17 47.49527 8.07059 7393 ft 283 kts 329°
2026-05-05 23:17 47.51425 8.06493 7086 ft 293 kts 359°
2026-05-05 23:18 47.53400 8.07476 6746 ft 299 kts 32°
2026-05-05 23:18 47.54738 8.09765 6434 ft 296 kts 65°
2026-05-05 23:18 47.55156 8.12648 6134 ft 291 kts 93°
2026-05-05 23:18 47.54992 8.15677 5743 ft 290 kts 99°
2026-05-05 23:19 47.54720 8.18628 5372 ft 286 kts 101°
2026-05-05 23:19 47.54381 8.21467 5231 ft 274 kts 104°
2026-05-05 23:19 47.54112 8.24176 5194 ft 260 kts 93°
2026-05-05 23:19 47.54385 8.26734 5167 ft 246 kts 68°
2026-05-05 23:20 47.55275 8.28800 5089 ft 233 kts 48°
2026-05-05 23:20 47.55976 8.29969 5036 ft 226 kts 45°
2026-05-05 23:20 47.57042 8.31645 4922 ft 217 kts 44°
2026-05-05 23:20 47.58077 8.33240 4843 ft 216 kts 44°
2026-05-05 23:21 47.59096 8.34840 4737 ft 209 kts 48°
2026-05-05 23:21 47.59532 8.36764 4664 ft 193 kts 97°
2026-05-05 23:21 47.59102 8.38542 4506 ft 179 kts 122°
2026-05-05 23:21 47.58331 8.39926 4255 ft 172 kts 147°
2026-05-05 23:22 47.57391 8.41039 3950 ft 170 kts 147°
2026-05-05 23:22 47.56552 8.42207 3675 ft 164 kts 140°
2026-05-05 23:22 47.55753 8.43331 3459 ft 153 kts 144°
2026-05-05 23:22 47.54993 8.44356 3267 ft 145 kts 144°
2026-05-05 23:23 47.54253 8.45363 3099 ft 145 kts 142°
2026-05-05 23:23 47.53525 8.46361 2903 ft 145 kts 141°
2026-05-05 23:23 47.52789 8.47368 2709 ft 143 kts 141°
2026-05-05 23:23 47.52063 8.48358 2523 ft 141 kts 141°
2026-05-05 23:24 47.51342 8.49323 2312 ft 139 kts 141°
2026-05-05 23:24 47.50614 8.50235 2157 ft 136 kts 140°
2026-05-05 23:24 47.49923 8.51202 1946 ft 136 kts 136°
2026-05-05 23:24 47.49254 8.52174 1729 ft 133 kts 137°
2026-05-05 23:25 47.48576 8.53102 1551 ft 133 kts 139°
2026-05-05 23:25 47.47899 8.54028 1417 ft 131 kts 137°
2026-05-05 23:25 47.47319 8.54819 1404 ft 92 kts 136°
2026-05-05 23:25 47.47030 8.55216 1405 ft 43 kts 137°
2026-05-05 23:26 47.46817 8.55505 1409 ft 38 kts 139°
2026-05-05 23:26 47.46599 8.55677 1408 ft 35 kts 165°
2026-05-05 23:26 47.46450 8.55728 1411 ft 0 kts 166°
2026-05-05 23:27 47.46435 8.55734 1407 ft 5 kts 166°
2026-05-05 23:27 47.46388 8.55759 1410 ft 10 kts 152°
2026-05-05 23:27 47.46323 8.55838 1414 ft 14 kts 138°
2026-05-05 23:28 47.46241 8.55948 1417 ft 12 kts 137°
2026-05-05 23:28 47.46183 8.55997 1420 ft 12 kts 170°
2026-05-05 23:28 47.46084 8.55988 1416 ft 17 kts 187°
2026-05-05 23:28 47.45971 8.55963 1421 ft 8 kts 202°
2026-05-05 23:29 47.45942 8.55871 1418 ft 14 kts 269°
2026-05-05 23:29 47.45951 8.55703 1417 ft 10 kts 279°
2026-05-05 23:29 47.45961 8.55611 1413 ft 4 kts 275°
2026-05-05 23:29 47.45963 8.55569 1413 ft 0 kts 274°
2026-05-05 23:30 47.45966 8.55542 1414 ft 6 kts 285°
2026-05-05 23:30 47.46010 8.55521 1414 ft 10 kts 13°
2026-05-05 23:30 47.46042 8.55528 1413 ft 2 kts
2026-05-05 23:30 47.46064 8.55531 1413 ft 2 kts
2026-05-05 23:31 47.46065 8.55531 1413 ft 0 kts